{"data":{"norad_id":60209,"intl_designator":"2024-125G","name":"MESAT1","alt_names":[],"object_type":"PAYLOAD","status":"ACTIVE","operator":null,"country":"US","launch_date":"2024-07-04","launch_site_code":"AFWTR","launch_vehicle":null,"mission":null,"orbit_class":"UNKNOWN","rcs_meters":null,"size_class":null,"mass_kg":null,"dimensions":null,"purposes":["comms"],"wikipedia_slug":null,"has_3d_model":false,"image_url":null,"decayed_at":null,"tle_current":{"epoch":"2026-05-25T02:32:54.281184Z","epoch_age_seconds":61883,"freshness":"FRESH","line1":"1 60209U 24125G   26145.10618381  .00046678  00000+0  56470-3 0  9992","line2":"2 60209  97.2333   2.1031 0008145 303.1644  56.8831 15.60523881105963","mean_motion":15.60523881,"eccentricity":0.0008145,"inclination_deg":97.2333,"raan_deg":2.1031,"arg_perigee_deg":303.1644,"mean_anomaly_deg":56.8831,"bstar":0.0005647,"rev_number":10596,"period_min":92.276703838536,"perigee_km":380.63326747685,"apogee_km":391.65227922764,"semimajor_km":6764.2797733522,"source":"CELESTRAK","updated_at":"2026-05-25T13:38:23.293644Z"}}}